[keps] orb10112.2l.amsat

Ray Hoad ray.hoad at mypbmail.com
Thu Apr 22 19:43:05 PDT 2010


SB KEPS @ AMSAT  $ORB10112.N
2Line Orbital Elements 10112.AMSAT

HR AMSAT ORBITAL ELEMENTS FOR AMATEUR SATELLITES IN NASA FORMAT
FROM WA5QGD FORT WORTH,TX April 22, 2010
Send Subscribe/unsubscribe to KEPS at http://www.amsat.org/mailman/listinfo/keps
BID: ORB10112.N

DECODE 2-LINE ELSETS WITH THE FOLLOWING KEY:
1 AAAAAU 00  0  0 BBBBB.BBBBBBBB  .CCCCCCCC  00000-0  00000-0 0  DDDZ
2 AAAAA EEE.EEEE FFF.FFFF GGGGGGG HHH.HHHH III.IIII JJ.JJJJJJJJKKKKKZ
KEY: A-CATALOGNUM B-EPOCHTIME C-DECAY D-ELSETNUM E-INCLINATION F-RAAN
G-ECCENTRICITY H-ARGPERIGEE I-MNANOM J-MNMOTION K-ORBITNUM Z-CHECKSUM

TO ALL RADIO AMATEURS BT

AO-07
1 07530U 74089B   10111.62005048 -.00000027  00000-0  10000-3 0  7578
2 07530 101.4036 129.6767 0012138 025.9972 334.1707 12.53578257621367
FO-29
1 24278U 96046B   10111.60429324 -.00000043  00000-0 -46448-5 0  2939
2 24278 098.5144 308.5501 0349754 270.6884 085.4199 13.52949111675454
SO-33
1 25509U 98061B   10112.27437679  .00000252  00000-0  37271-4 0  6940
2 25509 031.4304 104.7063 0354235 161.0901 200.3367 14.28303140600057
RS-22
1 27939U 03042A   10112.67235539  .00000140  00000-0  35841-4 0  1165
2 27939 097.9010 340.4919 0012500 233.2978 126.7069 14.63407377350832
VO-52
1 28650U 05017B   10112.28658941 -.00000033  00000-0  22754-5 0  4865
2 28650 097.6966 167.8875 0028384 099.2497 261.1906 14.81726968268411
SO-67
1 35870U 09049F   10112.79428505  .00000746  00000-0  35162-4 0  6568
2 35870 097.3360 163.3653 0007323 247.8992 224.7220 15.22474852 33034
HO-68
1 36122U 09072B   10112.68622619 -.00000045  00000-0  00000 0 0  2393
2 36122 100.4733 173.6675 0007812 100.9409 259.2577 13.16280338 16919
UO-11
1 14781U 84021B   10111.22353581 -.00000169  00000-0 -15325-4 0  2226
2 14781 098.0596 162.7756 0010190 063.0983 297.1268 14.79790710403382
AO-16
1 20439U 90005D   10111.93599376  .00000012  00000-0  20117-4 0  8769
2 20439 098.3279 072.0721 0010713 339.1909 020.8842 14.31857347 57338
LO-19
1 20442U 90005G   10111.94276312 -.00000052  00000-0 -40421-5 0  7863
2 20442 098.2886 078.1094 0011555 333.3821 026.6766 14.32089195 57506
AO-27
1 22825U 93061C   10112.84960740 -.00000023  00000-0  78931-5 0  5109
2 22825 098.4806 062.2436 0009356 074.1259 286.0960 14.29294101864147
IO-26
1 22826U 93061D   10112.78497576  .00000022  00000-0  25365-4 0  2483
2 22826 098.4753 062.8035 0009925 069.3631 290.8611 14.29549674864247
GO-32
1 25397U 98043D   10112.41899798  .00000140  00000-0  79930-4 0  1663
2 25397 098.3136 122.9397 0002267 079.6920 280.4533 14.23176739612110
NO-44
1 26931U 01043C   10112.09564026  .00000110  00000-0  75306-4 0  4392
2 26931 067.0534 348.4915 0005942 264.3956 095.6494 14.29593212446736
SO-50
1 27607U 02058C   10112.62134660 -.00000030  00000-0  16905-4 0  1564
2 27607 064.5568 165.2900 0034858 103.2559 257.2447 14.71528671394205
CO-55
1 27844U 03031E   10112.03505625  .00000074  00000-0  54584-4 0  8308
2 27844 098.7101 121.8137 0010046 338.7968 021.2785 14.20700470353114
CO-57
1 27848U 03031J   10111.49295591  .00000041  00000-0  39505-4 0  7791
2 27848 098.7144 120.3640 0009865 344.9078 015.1814 14.20493551352995
AO-51
1 28375U 04025K   10111.89238566  .00000047  00000-0  27167-4 0  6576
2 28375 098.0609 108.5997 0083262 268.8503 090.3147 14.40680553305403
GENESAT1
1 29655U 06058C   10112.87864790  .00082919  00000-0  37213-3 0   258
2 29655 040.0182 027.2356 0009310 283.3549 076.6333 15.82990673191195
CP3
1 31129U 07012N   10111.09842276  .00000077  00000-0  28068-4 0  5581
2 31129 097.9439 153.7093 0103606 051.3912 309.6615 14.52241386159577
CO-65
1 32785U 08021C   10112.31449526 -.00000024  00000-0  36156-5 0  6614
2 32785 097.8992 178.0014 0016108 104.6797 255.6140 14.81631723107212
KKS-1
1 33493U 09002B   10112.71690487  .00000517  00000-0  73706-4 0  4120
2 33493 098.0782 231.7559 0019133 323.7318 036.2601 14.80949591 67274
SOHLA-1
1 33496U 09002E   10112.18962228  .00000064  00000-0  19085-4 0   830
2 33496 098.0522 222.0055 0007142 029.9282 330.2333 14.69486423 66652
NOAA-10
1 16969U 86073A   10112.14592140 -.00000082  00000-0 -15364-4 0   396
2 16969 098.6605 141.6282 0012658 019.7755 340.3915 14.27412906227582
NOAA-11
1 19531U 88089A   10112.30497748  .00000091  00000-0  69897-4 0   511
2 19531 098.7670 202.2796 0011093 311.3627 048.6617 14.14922372113230
NOAA-12
1 21263U 91032A   10112.41446647  .00000104  00000-0  62813-4 0  5377
2 21263 098.7662 125.5791 0012041 333.3584 026.6975 14.25629726984450
MET-3/5
1 21655U 91056A   10111.65939722  .00000051  00000-0  10000-3 0  7928
2 21655 082.5595 348.5796 0014441 126.5814 233.6603 13.17021868898238
MET-2/21
1 22782U 93055A   10112.75469577  .00000020  00000-0  47871-5 0  7552
2 22782 082.5450 296.4251 0021903 194.4716 165.5824 13.83643401840414
OKEAN-4
1 23317U 94066A   10112.85242553  .00000308  00000-0  34952-4 0  2115
2 23317 082.5414 045.5035 0024009 065.6949 294.6786 14.82802827838258
NOAA-14
1 23455U 94089A   10112.44486789  .00000029  00000-0  38868-4 0   296
2 23455 098.8786 193.5713 0010034 038.2196 321.9682 14.13784227789625
NOAA-15
1 25338U 98030A   10112.18552472  .00000075  00000-0  50828-4 0  3498
2 25338 098.6166 100.1255 0009743 235.1354 124.8894 14.24819428620770
RESURS
1 25394U 98043A   10112.63564032 -.00000011  00000-0  12759-4 0  4841
2 25394 098.3086 133.7314 0002212 047.3177 312.8183 14.24198885612440
FENGYUN1
1 25730U 99025A   10111.89068518  .00000251  00000-0  17169-3 0   245
2 25730 098.7843 078.3143 0024952 066.1291 294.2516 14.08222223563763
OKEAN-0
1 25860U 99039A   10112.39832843  .00000057  00000-0  16040-4 0  9724
2 25860 097.8280 087.0086 0000577 072.0044 288.1235 14.73632603578680
NOAA-16
1 26536U 00055A   10112.26861727 -.00000222  00000-0 -94789-4 0  8264
2 26536 099.1730 128.4138 0011281 131.3885 228.8267 14.12553195493931
NOAA-17
1 27453U 02032A   10112.35264654 -.00000028  00000-0  62132-5 0  8302
2 27453 098.4358 165.0300 0010838 303.2246 056.7893 14.24150187406758
NOAA-18
1 28654U 05018A   10112.43646172 -.00000176  00000-0 -72765-4 0  3145
2 28654 098.9468 058.8732 0013765 207.7581 152.2858 14.11346989253575
NOAA-19
1 33591U 09005A   10112.41240394  .00000006  00000-0  27442-4 0  5138
2 33591 098.7849 055.7284 0015159 087.2933 272.9975 14.11043816 62044
HUBBLE
1 20580U 90037B   10110.59790984  .00000546  00000-0  28962-4 0  5530
2 20580 028.4707 255.8109 0003219 312.8116 047.2138 15.00954638896090
ISS
1 25544U 98067A   10113.00621263  .00025402  00000-0  16989-3 0   255
2 25544 051.6471 153.7726 0003214 195.6601 237.1721 15.75128884654787
CO-58
1 28895U 05043F   10112.67044317  .00000083  00000-0  26776-4 0  5642
2 28895 098.0238 358.9648 0019423 100.2381 260.1026 14.59878004238883
FALCON
1 30776U 07006E   10112.10783684  .00000863  00000-0  64858-4 0  8113
2 30776 035.4339 024.7464 0000726 358.5805 001.4909 15.03606723171610
MAST
1 31126U 07012K   10112.67124242  .00000087  00000-0  29959-4 0  8471
2 31126 097.9424 157.5380 0095717 039.1867 321.6197 14.53577249159991
CAPE1
1 31130U 07012P   10112.04898588  .00000402  00000-0  10287-3 0  8674
2 31130 097.9454 154.4706 0104122 048.6935 312.3137 14.52166297159514
COMPASS
1 32787U 08021E   10111.71887753  .00000134  00000-0  23589-4 0  6512
2 32787 097.8978 177.2419 0016996 107.7577 252.5501 14.81833471107135
AAUSAT2
1 32788U 08021F   10112.13245443  .00000143  00000-0  24681-4 0  6451
2 32788 097.8991 177.7652 0016769 107.0888 253.2213 14.81973506107201
DO-64
1 32789U 08021G   10112.68638221  .00001052  00000-0  13863-3 0  6620
2 32789 097.9041 178.7245 0016777 104.5495 255.7583 14.82090192107280
CO-66
1 32791U 08021J   10112.67820081  .00000582  00000-0  80535-4 0  6436
2 32791 097.8987 178.2097 0017214 102.8555 257.4579 14.81629076107233
RS-30
1 32953U 08025A   10112.83303179  .00000010  00000-0  00000 0 0  6252
2 32953 082.5005 064.0950 0017419 221.1712 138.8054 12.43004828 86865
TACSAT-3
1 35001U 09028A   10112.65769904  .00005192  00000-0  12629-3 0  2699
2 35001 040.4552 187.5540 0022851 308.7877 051.0898 15.41271120 52067
PHARMSAT
1 35002U 09028B   10111.59492430  .00004353  00000-0  10462-3 0  2544
2 35002 040.4711 192.1447 0025842 304.7765 055.0620 15.41834883 51919
HAWKSAT1
1 35003U 09028C   10112.57869348  .00009347  00000-0  20029-3 0  2717
2 35003 040.4631 182.5396 0023337 322.5446 037.3745 15.44410147 52118
CP6
1 35004U 09028D   10111.56829325  .00010436  00000-0  21854-3 0  2636
2 35004 040.4645 188.0846 0022253 315.1825 044.7195 15.45025355 51956
AEROCUB3
1 35005U 09028E   10112.54763207  .00028030  00000-0  52115-3 0  2871
2 35005 040.4709 181.7570 0019204 329.2488 030.7203 15.48024893 52118
DRAGNSAT
1 35690U 09038B   10076.22711312  .05715194  12509-4  31481-3 0  3162
2 35690 051.6170 315.4586 0004999 310.9891 057.3269 16.42150010 36561
POLLUX
1 35693U 09038E   10087.99866888  .23496735  12787-4  17715-3 0  3529
2 35693 051.6099 254.5746 0006270 294.4866 097.5899 16.52338462 38395
CASTOR
1 35694U 09038F   10112.87947127  .00064044  12840-4  17334-3 0  3067
2 35694 051.6356 134.5764 0005489 012.1850 347.9292 15.94517130 42219
METEOR-M
1 35865U 09049A   10112.75177392  .00000176  00000-0  10000-3 0  2301
2 35865 098.7633 166.9326 0002351 142.3756 217.7553 14.21829731 30840
RS-38
1 35869U 09049E   10112.72918156  .00000177  00000-0  10000-3 0  2360
2 35869 098.7616 166.9378 0004825 154.8256 205.3127 14.21979904 30841
/EX




More information about the Keps mailing list